Location: Peterborough
(44.3091°N, 78.3197°W)
Time: 06:20:42
(UTC-04:00)

Vanguard 1 Rocket - Pass Details

Date: 25 March 2023
Orbit: 655 x 4220 km, 34.3° (Epoch: 04 June)

Event Time Altitude Azimuth Distance (km) Brightness Sun altitude
Rises 04:49:16 0° 274° (W) 6,578 - -24.5°
Reaches altitude 10° 04:54:54 10° 267° (W) 4,923 - -23.6°
Exits shadow 05:04:06 31° 224° (SW) 2,481 9.0 -22.1°
Maximum altitude 05:05:14 32° 211° (SSW) 2,325 9.0 -21.9°
Drops below altitude 10° 05:11:21 10° 150° (SSE) 2,859 10.0 -20.9°
Sets 05:13:43 0° 139° (SE) 3,543 10.7 -20.6°
